Waarnemingen

Advertentie
Mijn weer
Lichteiland Goeree, Nederland (6320): temperatuur & dauwpunt: 18.04.2018 10:00:00 - 24.04.2018 10:00:00 (CEST)Lichteiland Goeree, Nederland (6320): water temperatuur: 18.04.2018 10:00:00 - 24.04.2018 10:00:00 (CEST)Lichteiland Goeree, Nederland (6320): windsnelheid & windstoten: 18.04.2018 10:00:00 - 24.04.2018 10:00:00 (CEST)Lichteiland Goeree, Nederland (6320): windrichting: 18.04.2018 10:00:00 - 24.04.2018 10:00:00 (CEST)Lichteiland Goeree, Nederland (6320): luchtdruk: 18.04.2018 10:00:00 - 24.04.2018 10:00:00 (CEST)Lichteiland Goeree, Nederland (6320): zicht: 18.04.2018 10:00:00 - 24.04.2018 10:00:00 (CEST)
Datum & Tijd tt [°C] td [°C] tw [°C] ff [km/u] ff [kn] fx [km/u] fx [kn] dd ppp [hPa] vv [km]
24.04.2018 10:00:00 9,5 8,4 8,4 37 20 36 19 WZW 1015,4 7
24.04.2018 09:00:00 9,5 8,3 8,5 39 21 40 21 WZW 1015,1 7
24.04.2018 08:00:00 9,6 8,1 8,5 37 20 36 19 WZW 1014,6 8
24.04.2018 07:00:00 9,5 8,0 8,6 37 20 40 21 WZW 1014,4 8
24.04.2018 06:00:00 9,5 7,8 8,6 41 22 43 23 WZW 1014,0 9
24.04.2018 05:00:00 9,6 7,8 8,5 42 23 50 27 WZW 1014,1 9
24.04.2018 04:00:00 9,7 7,6 8,4 43 23 50 27 WZW 1013,9 10
24.04.2018 03:00:00 9,8 7,6 8,4 48 26 50 27 WZW 1013,9 10
24.04.2018 02:00:00 9,8 7,4 8,4 46 25 50 27 WZW 1014,4 10
24.04.2018 01:00:00 9,7 7,4 8,4 46 25 47 25 WZW 1014,8 10
24.04.2018 00:00:00 9,6 7,5 8,5 42 23 50 27 ZW 1015,1 10
23.04.2018 23:00:00 9,7 7,3 8,5 48 26 50 27 ZW 1015,6 10
23.04.2018 22:00:00 9,9 7,0 8,6 46 25 50 27 ZW 1015,7 10
23.04.2018 21:00:00 9,9 6,7 8,5 46 25 50 27 WZW 1015,5 10
23.04.2018 20:00:00 10,1 6,6 8,6 40 21 47 25 WZW 1015,5 16
23.04.2018 19:00:00 10,1 7,4 8,5 31 17 36 19 ZW 1015,9 10
23.04.2018 18:00:00 10,1 7,5 8,6 29 16 32 18 ZW 1016,2 12
23.04.2018 17:00:00 9,8 7,8 8,6 22 12 29 16 WZW 1016,6 12
23.04.2018 16:00:00 9,8 7,7 8,6 25 14 32 18 WZW 1016,6 14
23.04.2018 15:00:00 9,5 7,5 8,6 25 14 29 16 WZW 1017,0 14
23.04.2018 14:00:00 9,4 7,5 8,4 29 16 32 18 WZW 1016,5 10
23.04.2018 13:00:00 9,4 7,5 8,4 29 16 36 19 W 1016,3 13
23.04.2018 12:00:00 9,3 7,5 8,4 29 16 32 18 W 1016,0 13
23.04.2018 11:00:00 9,2 7,2 8,4 25 14 36 19 W 1015,7 15
23.04.2018 10:00:00 9,2 7,1 8,4 31 17 36 19 W 1014,9 10
23.04.2018 09:00:00 9,3 7,3 8,4 29 16 29 16 WZW 1014,4 18
23.04.2018 08:00:00 9,4 7,5 8,4 25 14 29 16 WZW 1013,6 17
23.04.2018 07:00:00 9,6 7,6 8,4 25 14 29 16 W 1013,1 15
23.04.2018 06:00:00 9,9 7,7 8,4 28 15 29 16 W 1012,5 10
23.04.2018 05:00:00 10,0 7,9 8,4 25 14 32 18 W 1012,2 10
23.04.2018 04:00:00 10,1 8,0 8,4 29 16 32 18 W 1011,8 9
23.04.2018 03:00:00 10,3 7,7 8,4 29 16 36 19 WZW 1011,4 10
23.04.2018 02:00:00 10,5 7,7 8,4 37 20 40 21 W 1011,2 10
23.04.2018 01:00:00 10,3 7,7 8,2 29 16 40 21 WZW 1010,7 10
23.04.2018 00:00:00 10,9 8,1 8,3 42 23 47 25 WZW 1010,0 9
22.04.2018 23:00:00 11,8 8,0 8,4 50 27 54 29 ZW 1009,0 10
22.04.2018 22:00:00 11,8 7,7 8,4 48 26 50 27 WZW 1008,8 10
22.04.2018 21:00:00 11,7 8,1 8,9 48 26 50 27 ZW 1008,4 10
22.04.2018 20:00:00 13,4 7,2 8,9 47 25 54 29 WZW 1008,3 14
22.04.2018 19:00:00 14,5 6,5 8,4 40 21 47 25 WZW 1008,5 17
22.04.2018 18:00:00 14,1 7,6 8,4 40 21 43 23 WZW 1008,7 17
22.04.2018 17:00:00 14,1 10,0 8,5 29 16 32 18 WZW 1009,0 9
22.04.2018 16:00:00 13,5 9,9 8,6 24 13 25 14 W 1009,6 6
22.04.2018 15:00:00 13,5 10,3 8,4 28 15 29 16 W 1009,7 5
22.04.2018 14:00:00 19,8 12,4 8,3 22 12 22 12 ZZW 1009,6 8
22.04.2018 13:00:00 17,7 11,5 8,2 22 12 25 14 ZZO 1009,8 9
22.04.2018 12:00:00 16,5 11,0 8,1 22 12 36 19 ZZO 1010,3 9
22.04.2018 11:00:00 14,1 10,1 8,1 22 12 36 19 ZZO 1011,4 9
22.04.2018 10:00:00 14,1 10,1 8,2 21 11 32 18 ZO 1011,0 9
22.04.2018 09:00:00 12,9 8,8 8,2 29 16 29 16 ZO 1011,5 10
22.04.2018 08:00:00 13,5 8,5 8,4 22 12 25 14 ZZO 1012,0 10
22.04.2018 07:00:00 12,4 9,6 8,5 18 10 29 16 ZZW 1013,1 10
22.04.2018 06:00:00 13,8 9,1 8,2 31 17 29 16 ZO 1013,1 10
22.04.2018 05:00:00 14,4 9,0 8,3 29 16 32 18 ZO 1013,8 14
22.04.2018 04:00:00 15,0 9,1 8,1 29 16 32 18 OZO 1014,4 16
22.04.2018 03:00:00 16,0 8,5 8,3 34 18 32 18 OZO 1015,3 10
22.04.2018 02:00:00 15,4 9,1 8,2 31 17 32 18 OZO 1015,9 10
22.04.2018 01:00:00 15,8 9,0 7,9 29 16 29 16 O 1016,1 10
22.04.2018 00:00:00 15,7 8,8 8,0 24 13 25 14 O 1017,0 10
21.04.2018 23:00:00 16,9 9,0 8,0 24 13 25 14 O 1017,5 10
21.04.2018 22:00:00 15,0 8,7 8,1 24 13 25 14 O 1017,7 10
21.04.2018 21:00:00 14,1 7,7 8,2 28 15 29 16 ONO 1017,8 10
21.04.2018 20:00:00 13,0 7,5 8,5 22 12 29 16 ONO 1018,2 22
21.04.2018 19:00:00 13,2 7,2 8,2 25 14 29 16 NO 1018,9 23
21.04.2018 18:00:00 12,7 7,7 8,3 29 16 29 16 NO 1019,5 20
21.04.2018 17:00:00 11,5 8,1 8,3 25 14 29 16 NO 1020,3 14
21.04.2018 16:00:00 12,1 8,8 8,4 25 14 29 16 ONO 1020,8 11
21.04.2018 15:00:00 11,1 8,8 8,4 29 16 29 16 NO 1021,6 9
21.04.2018 14:00:00 9,6 8,3 8,1 28 15 29 16 NO 1022,1 7
21.04.2018 13:00:00 9,7 8,2 8,0 18 10 22 12 ONO 1022,5 5
21.04.2018 12:00:00 9,5 8,1 8,0 22 12 22 12 ONO 1023,1 5
21.04.2018 11:00:00 9,3 7,7 7,9 22 12 22 12 ONO 1023,2 5
21.04.2018 10:00:00 9,1 7,7 7,9 22 12 25 14 ONO 1023,0 7
21.04.2018 09:00:00 9,2 7,6 7,8 16 9 18 10 NO 1023,0 7
21.04.2018 08:00:00 8,8 7,6 7,9 15 8 14 8 NO 1023,1 7
21.04.2018 07:00:00 8,7 7,5 8,1 14 8 14 8 NO 1022,9 7
21.04.2018 06:00:00 8,7 7,4 8,2 14 8 18 10 NO 1022,3 7
21.04.2018 05:00:00 8,6 7,3 8,0 18 10 25 14 NO 1022,4 8
21.04.2018 04:00:00 8,7 7,3 8,0 22 12 25 14 NO 1022,5 7
21.04.2018 03:00:00 8,7 7,3 7,9 25 14 29 16 NNO 1022,6 5
21.04.2018 02:00:00 8,6 7,3 7,9 29 16 29 16 N 1022,9 4,1
21.04.2018 01:00:00 9,4 7,4 7,8 21 11 25 14 N 1022,9 5
21.04.2018 00:00:00 10,2 7,8 7,9 29 16 29 16 NNO 1022,7 5
20.04.2018 23:00:00 10,0 7,8 7,9 31 17 29 16 NNO 1022,5 3,3
20.04.2018 22:00:00 9,0 7,2 7,9 18 10 25 14 N 1022,9 3,0
20.04.2018 21:00:00 8,8 7,2 7,8 29 16 29 16 N 1022,6 2,7
20.04.2018 20:00:00 8,8 7,1 7,9 22 12 29 16 NNW 1022,2 2,8
20.04.2018 19:00:00 9,6 7,2 7,9 29 16 32 18 NW 1022,3 4,4
20.04.2018 18:00:00 10,1 7,9 8,0 25 14 25 14 WNW 1022,4 4,7
20.04.2018 17:00:00 10,8 8,2 8,0 18 10 29 16 WNW 1022,6 5
20.04.2018 16:00:00 11,3 8,1 7,8 29 16 32 18 WNW 1022,5 7
20.04.2018 15:00:00 11,6 7,7 8,0 24 13 25 14 W 1022,6 7
20.04.2018 14:00:00 13,5 7,6 7,9 26 14 25 14 W 1022,9 6
20.04.2018 13:00:00 13,7 9,2 7,8 26 14 25 14 W 1023,0 4,1
20.04.2018 12:00:00 13,5 8,8 7,9 22 12 32 18 W 1022,9 5
20.04.2018 11:00:00 15,8 9,3 7,9 11 6 14 8 ZW 1022,5 6
20.04.2018 10:00:00 15,6 9,1 7,8 9 5 11 6 ZZW 1022,1 7
20.04.2018 09:00:00 14,7 9,2 7,7 13 7 14 8 WZW 1022,2 4,9
20.04.2018 08:00:00 14,1 9,2 7,6 11 6 14 8 WZW 1022,1 5
20.04.2018 07:00:00 12,9 9,1 7,6 14 8 25 14 WZW 1022,1 6
20.04.2018 06:00:00 15,6 9,8 7,8 26 14 25 14 WZW 1021,8 10
20.04.2018 05:00:00 17,3 9,7 7,9 22 12 25 14 ZW 1021,8 10
20.04.2018 04:00:00 18,7 9,3 7,8 22 12 25 14 Z 1022,1 9
20.04.2018 03:00:00 20,6 7,9 7,8 22 12 29 16 Z 1022,4 10
20.04.2018 02:00:00 19,6 8,3 7,7 24 13 25 14 ZZO 1022,7 9
20.04.2018 01:00:00 20,0 6,9 7,7 18 10 18 10 ZO 1022,8 10
20.04.2018 00:00:00 19,6 5,7 7,7 14 8 22 12 ZO 1023,0 12
19.04.2018 23:00:00 19,1 6,9 7,9 22 12 22 12 O 1023,2 10
19.04.2018 22:00:00 18,3 6,6 7,9 24 13 25 14 ONO 1023,3 10
19.04.2018 21:00:00 18,3 6,4 7,8 18 10 22 12 ONO 1023,0 11
19.04.2018 20:00:00 19,2 6,3 7,7 18 10 18 10 ONO 1022,8 11
19.04.2018 19:00:00 18,4 7,3 7,8 16 9 22 12 NO 1023,3 9
19.04.2018 18:00:00 21,9 7,9 7,7 8 4 11 6 N 1023,6 10
19.04.2018 17:00:00 19,9 7,9 7,8 4 2 7 4 - 1024,0 10
19.04.2018 16:00:00 20,8 8,0 7,9 8 4 7 4 ZZO 1024,4 10
19.04.2018 15:00:00 21,6 7,8 7,9 13 7 18 10 ZZO 1024,8 10
19.04.2018 14:00:00 21,0 7,4 7,8 21 11 22 12 ZZO 1025,1 10
19.04.2018 13:00:00 19,6 7,8 7,5 21 11 22 12 ZZO 1025,4 10
19.04.2018 12:00:00 18,4 9,2 7,7 24 13 29 16 ZZO 1025,5 10
19.04.2018 11:00:00 17,0 8,0 7,7 29 16 32 18 ZZO 1025,6 10
19.04.2018 10:00:00 17,1 7,9 7,7 34 18 32 18 ZO 1025,7 10
19.04.2018 09:00:00 15,8 8,1 7,7 34 18 32 18 ZO 1025,9 10
19.04.2018 08:00:00 16,4 8,1 7,6 34 18 32 18 ZO 1025,9 10
19.04.2018 07:00:00 14,7 8,6 7,4 29 16 29 16 ZO 1025,7 10
19.04.2018 06:00:00 15,5 9,0 7,4 29 16 29 16 ZO 1025,7 9
19.04.2018 05:00:00 16,8 9,4 7,6 29 16 29 16 ZO 1025,9 10
19.04.2018 04:00:00 17,0 9,5 8,2 25 14 32 18 ZO 1026,1 10
19.04.2018 03:00:00 17,2 9,1 7,7 39 21 40 21 ZO 1026,2 10
19.04.2018 02:00:00 18,1 8,5 7,5 37 20 36 19 OZO 1026,6 10
19.04.2018 01:00:00 18,3 8,8 7,5 34 18 32 18 O 1027,0 10
19.04.2018 00:00:00 17,8 8,9 7,4 34 18 32 18 O 1027,4 10
18.04.2018 23:00:00 16,5 8,6 7,6 29 16 29 16 O 1027,6 10
18.04.2018 22:00:00 14,8 8,2 7,6 34 18 32 18 O 1027,4 10
18.04.2018 21:00:00 13,7 8,0 7,6 29 16 36 19 ONO 1027,3 10
18.04.2018 20:00:00 14,9 8,2 7,6 34 18 36 19 ONO 1027,4 10
18.04.2018 19:00:00 17,4 8,6 7,5 29 16 29 16 ONO 1027,9 10
18.04.2018 18:00:00 15,6 9,1 7,4 21 11 25 14 ONO 1028,3 10
18.04.2018 17:00:00 16,3 9,2 7,4 11 6 14 8 O 1028,6 10
18.04.2018 16:00:00 19,7 9,4 7,5 9 5 11 6 O 1029,3 10
18.04.2018 15:00:00 17,8 9,4 7,6 5 3 7 4 ZO 1030,0 10
18.04.2018 14:00:00 16,4 8,9 7,3 9 5 - - ZO 1030,5 10
18.04.2018 13:00:00 15,5 7,8 7,3 - - - - - 1030,7 10
18.04.2018 12:00:00 14,3 8,0 7,3 - - - - - 1030,9 10
18.04.2018 11:00:00 - - 7,5 - - - - - 1030,9 10
18.04.2018 10:00:00 13,7 7,7 7,5 22 12 22 12 ZZW 1030,4 10

tt = temperatuur
td = dauwpunt
tw = water temperatuur
ff = windsnelheid
fx = windstoten
dd = windrichting
ppp = luchtdruk
vv = zicht

Weerstations in de omgeving